[Iaude] MPEC V189: 2023 VM6 [a=2.63,e=0.78,i=1.9,H=20.2,PHA]
    mpec at marsden.cfa.harvard.edu 
    mpec at marsden.cfa.harvard.edu
       
    Fri Nov 10 21:42:17 EST 2023
    
    
  
M.P.E.C. 2023-V189                            Issued 2023 November 11, 02:40 UT
     The Minor Planet Electronic Circulars contain information on unusual
         minor planets, routine data on comets and natural satellites,
         and occasional editorial announcements.  They are published
    on behalf of Division F of the International Astronomical Union by the
          Minor Planet Center, Smithsonian Astrophysical Observatory,
                          Cambridge, MA 02138, U.S.A.
			  
             Prepared using the Tamkin Foundation Computer Network
                              MPC at CFA.HARVARD.EDU
            URL https://www.minorplanetcenter.net/    ISSN 1523-6714
                                    2023 VM6                                    
Observations:
     K23V06M*1C2023 11 09.10842321 12 46.876-12 17 37.50         21.34GVEV189G96
     K23V06M 1C2023 11 09.11365421 12 49.410-12 17 26.45         20.73GVEV189G96
     K23V06M 1C2023 11 09.11887921 12 51.919-12 17 15.83         21.21GVEV189G96
     K23V06M KC2023 11 09.14247221 13 03.500-12 16 26.47         21.50GVEV189I52
     K23V06M KC2023 11 09.14710621 13 05.754-12 16 17.18         21.58GVEV189I52
     K23V06M KC2023 11 09.15174021 13 08.029-12 16 07.57         21.29GVEV189I52
     K23V06M KC2023 11 09.15637821 13 10.286-12 15 57.49         21.33GVEV189I52
     K23V06M KC2023 11 09.17541621 13 19.577-12 15 18.65         20.8 GVEV189H01
     K23V06M KC2023 11 09.18018521 13 21.905-12 15 08.61         21.1 GVEV189H01
     K23V06M KC2023 11 09.18398221 13 23.771-12 15 00.72         21.0 GVEV189H01
     K23V06M KC2023 11 09.18858921 13 26.023-12 14 51.23         21.0 GVEV189H01
     K23V06M KC2023 11 10.06526621 20 32.290-11 44 48.00         21.05GVEV189I52
     K23V06M KC2023 11 10.07300121 20 35.950-11 44 32.50         20.77GVEV189I52
     K23V06M KC2023 11 10.07985821 20 39.170-11 44 18.50         20.78GVEV189I52
     K23V06M 1C2023 11 10.71934 21 25 40.56 -11 22 36.2          21.2 VXEV189033
     K23V06M 1C2023 11 10.72159 21 25 41.60 -11 22 31.1          21.1 VXEV189033
     K23V06M 1C2023 11 10.72385 21 25 42.65 -11 22 26.8          21.4 VXEV189033
     K23V06M $C2023 11 10.82562421 26 29.748-11 18 56.13         20.9 GVEV189J04
     K23V06M $C2023 11 10.83416721 26 33.657-11 18 38.52         20.8 GVEV189J04
     K23V06M $C2023 11 10.84246121 26 37.441-11 18 22.18         21.0 GVEV189J04
     K23V06M KC2023 11 11.00031421 27 50.54 -11 13 04.1          21.0 GVEV189H21
     K23V06M KC2023 11 11.00620721 27 53.24 -11 12 52.1          20.8 GVEV189H21
     K23V06M KC2023 11 11.01198321 27 55.85 -11 12 40.5          20.9 GVEV189H21
Observer details:
033 Karl Schwarzschild Observatory, Tautenburg.  Observers S. Melnikov, C.
    Hogner, F. Ludwig, M. Hartmann, B. Stecklum.  Measurer B. Stecklum.
    1.34-m f/3 Schmidt + CCD.
G96 Mt. Lemmon Survey.  Observer D. Rankin.  Measurers E. C. Beshore, D. Fay,
    J. B. Fazekas, D. C. Fuls, A. R. Gibbs, A. D. Grauer, H. Groeller, J. K.
    Hogan, R. A. Kowalski, S. M. Larson, G. J. Leonard, D. Rankin, R. L.
    Seaman, F. C. Shelly, K. W. Wierzchos.  1.5-m reflector + 10K CCD.
H01 Magdalena Ridge Observatory, Socorro.  Observers W. H. Ryan, E. V. Ryan.
    Measurer W. H. Ryan.  2.4-m f/8.9 Ritchey-Chretien + CCD.
H21 Astronomical Research Observatory, Westfield.  Observer R. Holmes.
    Measurers T. Linder, R. Holmes, L. Horn.  1.3-m f/4.0 astrograph + CCD.
I52 Steward Observatory, Mt. Lemmon Station.  Observer H. Groeller.  Measurers
    E. C. Beshore, D. Fay, J. B. Fazekas, D. C. Fuls, A. R. Gibbs, A. D.
    Grauer, H. Groeller, J. K. Hogan, R. A. Kowalski, S. M. Larson, G. J.
    Leonard, D. Rankin, R. L. Seaman, F. C. Shelly, K. W. Wierzchos.  1.0-m
    prime focus + CCD.
J04 ESA Optical Ground Station, Tenerife.  Observers D. Abreu, F. Ocana, M.
    Micheli, L. Conversi.  Measurers F. Ocana, M. Micheli, R. Kresken.
    1.0-m f/4.4 reflector + CCD.
Orbital elements:
2023 VM6                                            PHA, Earth MOID = 0.0308 AU
Epoch 2023 Sept. 13.0 TT = JDT 2460200.5                Bell                    
M 359.21621              (2000.0)            P               Q                  
n   0.23113426     Peri.   17.83653     +0.19715596     +0.97984115             
a   2.6296211      Node   263.54355     -0.90338349     +0.16879175             
e   0.7839931      Incl.    1.86061     -0.38082516     +0.10686753             
P   4.26           H   20.27          G   0.15           U   9                  
Residuals in seconds of arc
231109 G96  0.7+  0.3-    231109 H01  0.1-  0.0     231110 033  0.2+  0.3+
231109 G96  0.3+  0.0     231109 H01  0.0   0.0     231110 J04  0.1+  0.1+
231109 G96  0.4-  0.2-    231109 H01  0.1-  0.1-    231110 J04  0.1+  0.3+
231109 I52  0.2+  0.2+    231110 I52  0.2-  0.6+    231110 J04  0.0   0.2-
231109 I52  0.0   0.1-    231110 I52  0.0   0.2+    231111 H21  0.1-  0.1-
231109 I52  0.1+  0.1-    231110 I52  0.1-  0.2+    231111 H21  0.2+  0.0
231109 I52  0.1-  0.3+    231110 033  0.0   0.1+    231111 H21  0.1-  0.2-
231109 H01  0.0   0.2-    231110 033  0.0   0.6+
Ephemeris:
2023 VM6                 a,e,i = 2.63, 0.78, 2                   q = 0.5680
Date    TT    R. A. (2000) Decl.     Delta      r    Elong.  Phase     V
2023 10 12    16 20 07.1 -18 50 59   0.5429  0.7560    48.4    99.1    21.9
...
2023 10 27    18 59 35.4 -18 52 05   0.4487  0.9495    71.2    82.3    21.3
...
2023 11 04    20 26 28.1 -15 12 26   0.4762  1.0566    84.3    69.1    21.2
...
2023 11 10    21 20 00.8 -11 46 52   0.5285  1.1366    91.7    60.6    21.3
2023 11 11    21 27 50.0 -11 12 54   0.5394  1.1498    92.7    59.3    21.4
2023 11 12    21 35 21.2 -10 39 21   0.5508  1.1631    93.6    58.2    21.4
...
2023 11 18    22 14 43.0 -07 31 12   0.6290  1.2418    97.8    52.1    21.7
...
2023 11 26    22 54 57.3 -04 00 54   0.7532  1.3448   100.3    46.2    22.1
...
2023 12 11    23 47 36.5 +00 51 38   1.0257  1.5309    99.2    39.4    22.8
M. P. C. Staff               (C) Copyright 2023 MPC           M.P.E.C. 2023-V189
    
    
More information about the Iaude
mailing list